Regional Weather Roundup
Issued by NWS

Home | Current Version | Previous Version | Graphics & Text | Print | Product List | Glossary On
Versions: 1 2 3 4 5 6 7 8 9 10 11 12 13 14 15 16 17 18 19 20 21 22 23 24 25 26 27
000
ASUS45 KBOU 100310
RWRCO

WEATHER ROUNDUP FOR COLORADO
NATIONAL WEATHER SERVICE DENVER/BOULDER CO
800 PM MST SAT DEC 09 2017

NOTE: "FAIR" INDICATES FEW OR NO CLOUDS BELOW 12000 FEET WITH NO
SIGNIFICANT WEATHER AND/OR OBSTRUCTIONS TO VISIBILITY.

COZ001>005-013-030-031-100400-
...NORTHWEST COLORADO...

CITY           SKY/WX    TMP DP  RH WIND       PRES   REMARKS
CRAIG          FAIR      13   7  77 CALM      30.54S
HAYDEN         FAIR      22  11  62 E9        30.55S WCI  12
MEEKER         FAIR      24   6  46 CALM      30.54R
RABBIT EARS PA FAIR      19   9  63 W9G16     30.55S WCI   9
STEAMBOAT SPGS FAIR      21  14  74 CALM      30.55R
WALDEN         FAIR      14   5  67 SE8       30.54R WCI   3
$$

COZ006>008-011-100400-
...WEST CENTRAL VALLEYS...

CITY           SKY/WX    TMP DP  RH WIND       PRES   REMARKS
GRAND JUNCTION FAIR      30   8  39 E6        30.52R WCI  24
MONTROSE       FAIR      25   5  42 SE8       30.56R WCI  16
EAGLE          FAIR      18  12  77 CALM      30.61R
RIFLE          FAIR      24   8  50 S5        30.55R WCI  18
DELTA          FAIR      27   3  35 CALM      30.54R
NUCLA          FAIR      30  -2  24 E9        30.55S WCI  22
$$

COZ017>023-064>068-100400-
...SOUTHWEST COLORADO...

CITY           SKY/WX    TMP DP  RH WIND       PRES   REMARKS
DURANGO        FAIR      25   4  40 N3        30.48R
CORTEZ         FAIR      21   1  41 E12       30.50R WCI   9
PAGOSA SPRINGS FAIR      27   2  34 CALM      30.50R
TELLURIDE      FAIR      30 -11  16 SE6       30.58R WCI  24
WOLF CREEK PAS FAIR      25 -18  14 NW6       30.62S WCI  18
$$

COZ009-010-012-014-032>034-037-058>063-100400-
...CENTRAL COLORADO...

CITY           SKY/WX    TMP DP  RH WIND       PRES   REMARKS
ASPEN          FAIR      25   6  44 SW10      30.55R WCI  15
BUENA VISTA    FAIR      35  -5  18 NW17G23   30.50R WCI  25
COPPER MTN     NOT AVBL
BERTHOUD PASS  FAIR      16   5  62 NW21      30.56R WCI  -2
COTTONWOOD PAS FAIR      36 -17  10 W13       30.53R
GUNNISON       FAIR      19   1  45 N6        30.55R WCI  11
KREMMLING      FAIR       9   3  78 E6        30.61R WCI  -1
LEADVILLE      FAIR      16  -3  43 NE8       30.54S WCI   5
MONARCH PASS   FAIR      23  -6  28 W21G29    30.66S WCI   8
SALIDA         FAIR      33  -4  19 SW8       30.57R WCI  26
SUNLIGHT       FAIR      27  -6  24 NW5       30.63R WCI  21
WILKERSON PASS FAIR      28 -22  10 N9G21     30.56R WCI  20
$$

COZ069>075-100400-
...SAN LUIS VALLEY/SANGRE DE CRISTO MOUNTAINS...

CITY           SKY/WX    TMP DP  RH WIND       PRES   REMARKS
ALAMOSA        FAIR      17  -3  41 W6        30.48R WCI   9
DEL NORTE      FAIR      22  -5  30 SW8       30.50S WCI  13
LA VETA PASS   FAIR      28  -6  22 S15G22      N/A  WCI  17
SAGUACHE       FAIR      32  -2  23 NW12G21   30.50R WCI  23
$$

COZ035-036-038>040-100400-
...NORTHERN COLORADO FRONT RANGE...

CITY           SKY/WX    TMP DP  RH WIND       PRES   REMARKS
DENVER INTL AP FAIR      38   1  21 SW8       30.39R
DMNS CITY PARK NOT AVBL
AURORA         PTCLDY    34   2  25 S9        30.40R WCI  27
FRONT RANGE AP CLEAR     34   1  25 S7        30.40R WCI  28
ERIE MUNI ARPT FAIR      30   6  35 CALM      30.44R
BOULDER MUN AP FAIR      45   1  16 SW6       30.38S
CENTENNIAL     FAIR      34   5  29 S6        30.40R WCI  29
BROOMFIELD     PTCLDY    46   0  14 W17       30.40R
FORT COLLINS   FAIR      39   3  22 NE8       30.39R
LONGMONT       FAIR      36   6  28 W5        30.40R
$$

COZ041-046-047-076>085-087-088-100400-
...PIKES PEAK/PALMER DIVIDE AND SOUTHERN FOOTHILLS...

CITY           SKY/WX    TMP DP  RH WIND       PRES   REMARKS
COLO. SPRINGS  FAIR      32  -2  23 N7        30.42R WCI  26
A. F. ACADEMY  FAIR      23  -4  30 N8        30.42R WCI  14
SCHRIEVER AFB  FAIR      35  -3  19 N6        30.43R WCI  30
CHEYENNE MTN   FAIR      42  -5  14 CALM      30.38R
ELLICOTT         N/A    N/A N/A N/A N3        30.40R
FALCON         FAIR      28  -4  25 NW8       30.44R WCI  20
FORT CARSON    FAIR      33   0  24 N10       30.40R WCI  24
LIMON          FAIR      30   0  27 NW12      30.38R WCI  20
MONUMENT HILL  FAIR      23   3  42 SW6       30.44S WCI  16
CANON CITY     FAIR      37   1  22 W7        30.41R
WALSENBURG     FAIR      39  -2  17 NW7       30.40R
TRINIDAD       FAIR      26   6  42 NW12      30.38R WCI  16
$$

COZ042>045-048>051-090-091-100400-
...NORTHEAST COLORADO...

CITY           SKY/WX    TMP DP  RH WIND       PRES   REMARKS
GREELEY ARPT   FAIR      32   7  35 VRB6      30.39R WCI  26
AKRON          FAIR      37   3  24 W12       30.34R
BURLINGTON     FAIR      32   6  33 NW13      30.33R WCI  22
WRAY           FAIR      32   7  34 W10       30.30S WCI  24
YUMA           FAIR      32   7  34 NW13      30.31S WCI  22
STERLING       FAIR      43  10  26 NW20      30.30S
HOLYOKE        FAIR      45   9  23 W13G23    30.28S
FORT MORGAN    FAIR      44  -2  14 NW17G23   30.36R
$$

COZ086-089-092>099-100400-
...SOUTHEAST COLORADO...

CITY           SKY/WX    TMP DP  RH WIND       PRES   REMARKS
PUEBLO         FAIR      31  -1  25 CALM      30.39R
LA JUNTA       FAIR      47   3  16 S5        30.35R
LAMAR          FAIR      24   1  36 SW5       30.34R WCI  18
SPRINGFIELD      N/A     20   3  48 W7        30.36R WCI  11
$$




USA.gov is the U.S. government's official web portal to all federal, state and local government web resources and services.